This is the latest recevied weather packets stored in our database for station/object KGRR-WX. If no packets are shown the sender has not sent any weather packets the latest 10 day(s).
| Time | Temp. | Humidity | Pressure | Rain* | Wind** | Luminosity | Snow |
|---|---|---|---|---|---|---|---|
| 1777693505 | 1.11° C | 63% | 988.9 hPa | 0 mm | - | - | - |
| 1777692622 | 1.67° C | 66% | 988.3 hPa | 0 mm | - | - | - |
| 1777691705 | 1.67° C | 66% | 988.3 hPa | 0 mm | - | - | - |
| 1777690824 | 1.67° C | 66% | 988.3 hPa | 0 mm | - | - | - |
| 1777689905 | 2.22° C | 62% | 987.9 hPa | 0 mm | - | - | - |
| 1777689020 | 2.22° C | 64% | 988.7 hPa | 0 mm | - | - | - |
| 1777688105 | 2.22° C | 64% | 988.7 hPa | 0 mm | - | - | - |
| 1777687218 | 2.78° C | 64% | 988.7 hPa | 0 mm | - | - | - |
| 1777686305 | 2.78° C | 63% | 988.7 hPa | 0 mm | - | - | - |
| 1777685419 | 3.33° C | 63% | 988.7 hPa | 0 mm | - | - | - |
| 1777684505 | 3.33° C | 63% | 988.7 hPa | 0 mm | - | - | - |
| 1777683615 | 3.89° C | 63% | 988.7 hPa | 0 mm | - | - | - |
| 1777682704 | 3.89° C | 54% | 989.1 hPa | 0 mm | - | - | - |
| 1777681820 | 4.44° C | 56% | 989.7 hPa | 0 mm | - | - | - |
| 1777680905 | 5° C | 56% | 989.7 hPa | 0 mm | - | - | - |
| 1777680024 | 5° C | 56% | 989.7 hPa | 0 mm | - | - | - |
| 1777679105 | 5.56° C | 51% | 988 hPa | 0 mm | - | - | - |
| 1777678213 | 5.56° C | 53% | 989 hPa | 0 mm | - | - | - |
| 1777677305 | 5.56° C | 53% | 989 hPa | 0 mm | - | - | - |
| 1777676422 | 5.56° C | 53% | 989 hPa | 0 mm | - | - | - |
| 1777675505 | 6.11° C | 55% | 987.9 hPa | 0 mm | - | - | - |
| 1777674621 | 6.67° C | 51% | 988.8 hPa | 0 mm | - | - | - |
| 1777673705 | 6.67° C | 51% | 988.7 hPa | 0 mm | - | - | - |
| 1777672825 | 6.67° C | 51% | 988.7 hPa | 0 mm | - | - | - |
| 1777671905 | 7.22° C | 57% | 988.2 hPa | 0 mm | - | - | - |
* Rain latest hour (hover to see other rain measurements)
** Current wind speed in m/s (hover to see current wind gust speed)